Flag for Cameroon Weather past 2 weeks in Douala, Cameroon

Now
77 °F

Thunderstorms. Passing clouds.


Feels Like: 78 °F
Forecast: 75 / 83 °F
Wind: 5 mph from Northeast

Location: Douala Obs.

Current Time: Sep 20, 2014 at 3:24:20 AM

Latest Report: Sep 20, 2014 at 2:00 AM


Visibility: N/A

Pressure: 29.92 "Hg

Humidity: 94%

Dew point: 75 °F

Location of DoualaLocation

Historic Weather in Douala — Graph

°F

Douala temperature yesterday

Maximum temperature yesterday: 86 °F (at 3:00 PM)
Minimum temperature yesterday: 75 °F (at 4:00 AM)
Average temperature yesterday: 79 °F

Past Weeks' High & Low Weather Summary

 TemperatureHumidityPressure
High90 °F (Sep 12, 1:00 PM)100% (Sep 5, 2:00 AM)30.01 "Hg (Sep 5, 2:00 AM)
Low73 °F (Sep 17, 3:00 AM)59% (Sep 14, 3:00 PM)29.80 "Hg (Sep 10, 5:00 PM)
Average79 °F89%29.91 "Hg
* Reported Sep 5 2:00 AM — Sep 20 2:00 AM, Douala, Weather by CustomWeather, © 2014

Note: Actual official high and low records may vary slightly from our data, if they occured in-between our weather recording intervals... More about our weather records

Advertising

Douala weather history for previous 24 hours

 ConditionsComfort  
Time TempWeatherWind HumidityBarometerVisibility
2:00 AM
Sep 20
77 °FThunderstorms. Passing clouds.5 mph94%29.92 "HgN/A
1:00 AM77 °FThunderstorms. Passing clouds.5 mph94%29.92 "HgN/A
12:00 AM75 °FThunderstorms. Passing clouds.No wind100%29.92 "HgN/A
11:00 PM
Sep 19
79 °FThunderstorms. Passing clouds.No wind89%29.95 "HgN/A
10:00 PM79 °FThunderstorms. Passing clouds.5 mph89%29.95 "HgN/A
9:00 PM79 °FThunderstorms. Passing clouds.5 mph89%29.95 "HgN/A
8:00 PM79 °FPartly cloudy.5 mph89%29.89 "HgN/A
7:00 PM79 °FPartly cloudy.7 mph89%29.89 "HgN/A
6:00 PM81 °FBroken clouds.9 mph84%29.86 "HgN/A
5:00 PM81 °FPartly sunny.9 mph89%29.83 "HgN/A
4:00 PM84 °FPartly sunny.9 mph74%29.83 "HgN/A
3:00 PM86 °FPartly sunny.9 mph70%29.86 "HgN/A
2:00 PM84 °FPartly sunny.No wind74%29.86 "HgN/A
1:00 PM84 °FThunderstorms. Partly sunny.No wind74%29.92 "HgN/A
12:00 PM81 °FThunderstorms. Partly sunny.No wind84%29.95 "HgN/A
11:00 AM81 °FThunderstorms. Partly sunny.5 mph84%29.95 "HgN/A
10:00 AM79 °FThunderstorms. Partly sunny.5 mph84%29.98 "HgN/A
9:00 AM77 °FThunderstorms. Broken clouds.No wind94%29.98 "Hg4 mi
8:00 AM75 °FThunderstorms. Broken clouds.No wind94%29.95 "HgN/A
7:00 AM75 °FThunderstorms. More clouds than sun.No wind94%29.92 "Hg5 mi
6:00 AM75 °FThunderstorms. Mostly cloudy.5 mph94%29.92 "Hg4 mi
5:00 AM75 °FThunderstorms. Partly cloudy.7 mph100%29.89 "Hg4 mi
4:00 AM75 °FThunderstorms. Partly cloudy.No wind100%29.89 "Hg4 mi
3:00 AM77 °FThunderstorms. Partly cloudy.No wind94%29.86 "Hg5 mi
Weather by CustomWeather, © 2014

See weather overviewHow to use our weather pages